Home   Weather   Cozumel   Past weeks

Flag for Mexico Past Weather in Cozumel, Quintana Roo, Mexico — Yesterday and Last 2 Weeks

Now
86 °F

Partly sunny.


Feels Like: 97 °F
Forecast: 80 / 87 °F
Wind: 14 mph from South

Location: Cozumel Civ / Mil

Current Time: Apr 27, 2017 at 12:03:49 pm

Latest Report: Apr 27, 2017 at 10:43 am


Visibility: 8 mi

Pressure: 29.82 "Hg

Humidity: 75%

Dew Point: 77 °F

Location of CozumelLocation

Past Weather in Cozumel — Graph

°F

Cozumel Temperature Yesterday

Maximum temperature yesterday: 86 °F (at 11:42 am)
Minimum temperature yesterday: 77 °F (at 5:54 am)
Average temperature yesterday: 82 °F

High & Low Weather Summary for the Past Weeks

 TemperatureHumidityPressure
High88 °F (Apr 16, 2:41 pm)100% (Apr 16, 11:40 pm)30.07 "Hg (Apr 16, 11:40 pm)
Low66 °F (Apr 15, 2:49 am)43% (Apr 16, 2:41 pm)29.72 "Hg (Apr 26, 4:44 pm)
Average79 °F76%29.93 "Hg
* Reported Apr 12 10:49 am — Apr 27 10:43 am, Cozumel, Weather by CustomWeather, © 2017

Note: Actual official high and low records may vary slightly from our data, if they occured in-between our weather recording intervals... More about our weather records

Advertising

Cozumel Weather History for the Previous 24 Hours

Scroll right to see more
 ConditionsComfort  
Time TempWeatherWind HumidityBarometerVisibility
10:43 am
Thu, Apr 27
86 °FPartly sunny.14 mph75%29.82 "Hg8 mi
9:41 am84 °FPartly sunny.12 mph79%29.82 "Hg8 mi
8:40 am82 °FPartly sunny.14 mph84%29.80 "Hg8 mi
7:40 am82 °FPartly sunny.10 mph84%29.78 "Hg8 mi
6:44 am81 °FPassing clouds.13 mph89%29.78 "Hg7 mi
5:43 am81 °FPassing clouds.12 mph89%29.75 "Hg7 mi
3:46 am81 °FPassing clouds.12 mph84%29.76 "Hg7 mi
2:44 am81 °FPassing clouds.12 mph84%29.75 "Hg7 mi
1:47 am81 °FPassing clouds.12 mph84%29.77 "Hg7 mi
12:43 am81 °FPassing clouds.12 mph84%29.79 "Hg7 mi
11:41 pm
Wed, Apr 26
81 °FPassing clouds.12 mph84%29.79 "Hg7 mi
10:40 pm81 °FPassing clouds.12 mph84%29.79 "Hg7 mi
9:42 pm81 °FPassing clouds.9 mph89%29.79 "Hg7 mi
8:40 pm81 °FPassing clouds.12 mph84%29.76 "Hg7 mi
7:44 pm81 °FScattered clouds.10 mph84%29.75 "Hg7 mi
6:47 pm82 °FScattered clouds.10 mph62%29.75 "Hg7 mi
5:41 pm82 °FPartly sunny.13 mph79%29.73 "Hg8 mi
4:44 pm84 °FPartly sunny.9 mph74%29.72 "Hg8 mi
3:40 pm86 °FPartly sunny.12 mph70%29.74 "Hg8 mi
2:41 pm86 °FScattered clouds.16 mph66%29.73 "Hg8 mi
1:42 pm86 °FScattered clouds.12 mph70%29.75 "Hg8 mi
12:43 pm86 °FScattered clouds.10 mph66%29.79 "Hg8 mi
Weather by CustomWeather, © 2017

See weather overviewHow to use our weather pages